sat.trackr.live / text

‹ back to catalog

STARLINK-35274

NORAD 66073 · 2025-235R

PAYLOAD ACTIVE UNKNOWN

§ Identity

Operator
Country
US
Launch date
2025-10-19
Launch site
AFETR
Launch vehicle
Mass (kg)
RCS (m²)

Purposes: comms

External: N2YO · Heavens-Above · Gunter

§ Orbital elements

Epoch: 2026-05-25T00:30:24.279840Z

Period
94.11 min
Inclination
53.1598°
Eccentricity
0.0001884
Mean motion
15.30184516 rev/d
Perigee alt
474.0 km
Apogee alt
476.6 km
Semi-major
6,853.4 km
B*
7.7849e-4
RAAN
251.0378°
Arg perigee
86.5134°
Mean anomaly
273.6082°
Rev number
3,460

§ Raw data

STARLINK-352741 66073U 25235R   26145.02111435  .00022757  00000+0  77849-3 0  99942 66073  53.1598 251.0378 0001884  86.5134 273.6082 15.30184516 34604

JSON: /api/v1/satellites/66073 · /tle

For live sub-satellite position, see the globe view (requires WebGL).

§ Visibility from observer

Set your observer location to see the next 7 days of passes ≥ 10°. The values pass through the URL so the page stays shareable.

No JS? Fill the form by hand. The geolocation button needs JavaScript.